{"data":{"norad_id":62120,"intl_designator":"2024-222G","name":"STARLINK-32548","alt_names":[],"object_type":"PAYLOAD","status":"ACTIVE","operator":null,"country":"US","launch_date":"2024-11-27","launch_site_code":"AFETR","launch_vehicle":null,"mission":null,"orbit_class":"UNKNOWN","rcs_meters":null,"size_class":null,"mass_kg":null,"dimensions":null,"purposes":["comms"],"wikipedia_slug":null,"has_3d_model":false,"image_url":null,"decayed_at":null,"tle_current":{"epoch":"2026-05-25T04:18:22.148928Z","epoch_age_seconds":63586,"freshness":"FRESH","line1":"1 62120U 24222G   26145.17942302  .00022962  00000+0  84090-3 0  9993","line2":"2 62120  43.0028  64.5062 0001575 276.4512  83.6160 15.27597911 84450","mean_motion":15.27597911,"eccentricity":0.0001575,"inclination_deg":43.0028,"raan_deg":64.5062,"arg_perigee_deg":276.4512,"mean_anomaly_deg":83.616,"bstar":0.0008409,"rev_number":8445,"period_min":94.2656434413,"perigee_km":481.91483622306,"apogee_km":484.0760929494,"semimajor_km":6861.1324645862,"source":"CELESTRAK","updated_at":"2026-05-25T13:38:19.563597Z"}}}